Change the Weather History Date:

Tuesday, December 25, 2012

  Actual Average Record
Temperature  
Mean Temperature -6 °F -  
Max Temperature 3 °F 14 °F 42 °F (1999)
Min Temperature -14 °F -5 °F -40 °F (1948)
Degree Days  
Heating Degree Days 70    
Moisture  
Dew Point -12 °F    
Average Humidity 81    
Maximum Humidity 87    
Minimum Humidity 74    
Precipitation  
Precipitation 0.00 in - - ()
Sea Level Pressure  
Sea Level Pressure 30.37 in    
Wind  
Wind Speed 5 mph (West)    
Max Wind Speed 8 mph    
Max Gust Speed -    
Visibility 10 miles    
Events      
Averages and records for this station are not official NWS values.
T = Trace of Precipitation, MM = Missing Value Source: NWS Daily Summary

Daily Weather History Graph

Daily Weather History Graph

Search for Another Location

Airport or City:

Trip Planner

Search our weather history database for the weather conditions in past years. The results will help you decide how hot, cold, wet, or windy it might be!

Date:

Astronomy

Dec. 25, 2012 Rise Set
Actual Time 8:06 AM CST 4:33 PM CST
Civil Twilight 7:30 AM CST 5:09 PM CST
Nautical Twilight 6:51 AM CST 5:48 PM CST
Astronomical Twilight 6:13 AM CST 6:26 PM CST
Moon 2:45 PM CST (12/25) 5:36 AM CST (12/25)
Length of Visible Light 9h 39m
Length of Day
8h 27m
Waxing Gibbous, 94% of the Moon is Illuminated
Dec 25
Waxing Gibbous
Dec 28
Full
Jan 4
Last Quarter
Jan 11
New
Jan 18
First Quarter

Hourly Weather History & Observations

Time (CST) Temp. Windchill Dew Point Humidity Pressure Visibility Wind Dir Wind Speed Gust Speed Precip Events Conditions
12:15 AM -11.9 °F -27.3 °F -15.9 °F 83% 30.29 in 10.0 mi West 6.9 mph - N/A   Mostly Cloudy
12:35 AM -11.7 °F -27.1 °F -15.7 °F 83% 30.29 in 10.0 mi WNW 6.9 mph - N/A   Overcast
12:55 AM -12.1 °F -24.0 °F -15.9 °F 83% 30.30 in 10.0 mi West 4.6 mph - N/A   Overcast
1:15 AM -11.9 °F -23.8 °F -15.7 °F 83% 30.31 in 10.0 mi West 4.6 mph - N/A   Overcast
1:35 AM -12.1 °F -24.0 °F -15.9 °F 83% 30.31 in 10.0 mi West 4.6 mph - N/A   Overcast
1:55 AM -12.5 °F -24.4 °F -16.4 °F 82% 30.31 in 10.0 mi WNW 4.6 mph - N/A   Overcast
2:15 AM -12.3 °F -24.2 °F -16.2 °F 83% 30.32 in 10.0 mi West 4.6 mph - N/A   Overcast
2:35 AM -11.7 °F -23.6 °F -15.7 °F 83% 30.32 in 10.0 mi West 4.6 mph - N/A   Overcast
2:55 AM -12.1 °F -24.0 °F -16.2 °F 82% 30.32 in 10.0 mi NW 4.6 mph - N/A   Overcast
3:15 AM -12.6 °F -26.6 °F -16.6 °F 82% 30.33 in 10.0 mi WNW 5.8 mph - N/A   Overcast
3:35 AM -12.1 °F -25.9 °F -16.1 °F 83% 30.33 in 10.0 mi WNW 5.8 mph - N/A   Overcast
3:55 AM -12.8 °F -26.8 °F -17.0 °F 82% 30.34 in 10.0 mi WNW 5.8 mph - N/A   Overcast
4:15 AM -12.5 °F -26.3 °F -16.4 °F 82% 30.36 in 10.0 mi WNW 5.8 mph - N/A   Overcast
4:35 AM -11.2 °F -26.4 °F -15.5 °F 81% 30.36 in 10.0 mi WNW 6.9 mph - N/A   Overcast
4:55 AM -11.4 °F -25.1 °F -15.9 °F 80% 30.36 in 10.0 mi West 5.8 mph - N/A   Overcast
5:15 AM -11.6 °F -25.3 °F -15.9 °F 81% 30.36 in 10.0 mi West 5.8 mph - N/A   Overcast
5:35 AM -12.3 °F -26.1 °F -16.6 °F 81% 30.36 in 10.0 mi WNW 5.8 mph - N/A   Scattered Clouds
5:55 AM -13.0 °F -25.1 °F -17.0 °F 82% 30.37 in 10.0 mi West 4.6 mph - N/A   Clear
6:15 AM -13.0 °F -22.7 °F -17.0 °F 82% 30.38 in 10.0 mi West 3.5 mph - N/A   Clear
6:35 AM -13.5 °F -23.3 °F -17.7 °F 82% 30.38 in 10.0 mi West 3.5 mph - N/A   Clear
6:55 AM -13.4 °F -25.5 °F -17.7 °F 81% 30.39 in 10.0 mi West 4.6 mph - N/A   Clear
7:15 AM -13.9 °F -26.1 °F -18.4 °F 80% 30.39 in 10.0 mi West 4.6 mph - N/A   Clear
7:35 AM -14.8 °F -27.2 °F -19.3 °F 80% 30.39 in 10.0 mi West 4.6 mph - N/A   Clear
7:55 AM -14.4 °F -24.3 °F -18.8 °F 81% 30.39 in 10.0 mi WSW 3.5 mph - N/A   Clear
8:15 AM -13.9 °F - -18.4 °F 80% 30.40 in 10.0 mi Calm Calm - N/A   Clear
8:35 AM -13.9 °F -26.1 °F -18.4 °F 80% 30.40 in 10.0 mi WSW 4.6 mph - N/A   Clear
8:55 AM -13.4 °F -23.1 °F -17.9 °F 80% 30.40 in 10.0 mi WSW 3.5 mph - N/A   Clear
9:15 AM -12.6 °F -24.6 °F -17.1 °F 80% 30.41 in 10.0 mi WSW 4.6 mph - N/A   Clear
9:35 AM -11.2 °F -20.6 °F -15.5 °F 81% 30.41 in 10.0 mi WSW 3.5 mph - N/A   Clear
9:55 AM -9.8 °F -19.0 °F -14.3 °F 81% 30.41 in 10.0 mi West 3.5 mph - N/A   Clear
10:15 AM -8.5 °F -17.6 °F -13.0 °F 81% 30.41 in 10.0 mi West 3.5 mph - N/A   Clear
10:35 AM -6.9 °F -17.9 °F -11.6 °F 80% 30.41 in 10.0 mi West 4.6 mph - N/A   Clear
10:55 AM -5.6 °F -16.5 °F -10.1 °F 81% 30.41 in 10.0 mi West 4.6 mph - N/A   Clear
11:15 AM -4.2 °F - -8.9 °F 80% 30.41 in 10.0 mi Calm Calm - N/A   Clear
11:35 AM -3.3 °F -11.6 °F -8.1 °F 80% 30.40 in 10.0 mi WNW 3.5 mph - N/A   Clear
11:55 AM -2.2 °F -14.2 °F -7.1 °F 80% 30.39 in 10.0 mi NW 5.8 mph - N/A   Clear
12:15 PM -1.3 °F - -6.3 °F 79% 30.39 in 10.0 mi Calm Calm - N/A   Clear
12:35 PM -0.4 °F - -6.0 °F 77% 30.38 in 10.0 mi Calm Calm - N/A   Clear
12:55 PM 0.3 °F -9.5 °F -5.3 °F 77% 30.38 in 10.0 mi West 4.6 mph - N/A   Clear
1:15 PM 1.9 °F -10.6 °F -4.2 °F 76% 30.38 in 10.0 mi West 6.9 mph - N/A   Clear
1:35 PM 2.3 °F -11.4 °F -4.0 °F 75% 30.38 in 10.0 mi West 8.1 mph - N/A   Clear
1:55 PM 2.7 °F -8.4 °F -4.0 °F 74% 30.38 in 10.0 mi West 5.8 mph - N/A   Clear
2:15 PM 2.8 °F -8.2 °F -3.8 °F 74% 30.38 in 10.0 mi WNW 5.8 mph - N/A   Clear
2:35 PM 3.0 °F -6.4 °F -3.6 °F 74% 30.38 in 10.0 mi West 4.6 mph - N/A   Clear
2:55 PM 3.2 °F -6.2 °F -3.5 °F 74% 30.37 in 10.0 mi West 4.6 mph - N/A   Clear
3:15 PM 2.3 °F -5.2 °F -4.2 °F 74% 30.37 in 10.0 mi West 3.5 mph - N/A   Clear
3:35 PM 1.2 °F - -4.5 °F 77% 30.37 in 10.0 mi Calm Calm - N/A   Clear
3:55 PM 1.9 °F -7.6 °F -4.0 °F 76% 30.37 in 10.0 mi West 4.6 mph - N/A   Clear
4:15 PM 1.9 °F -9.2 °F -4.0 °F 76% 30.37 in 10.0 mi WSW 5.8 mph - N/A   Clear
4:35 PM 0.3 °F -11.2 °F -4.9 °F 79% 30.37 in 10.0 mi West 5.8 mph - N/A   Clear
4:55 PM -1.3 °F -11.4 °F -5.6 °F 82% 30.37 in 10.0 mi West 4.6 mph - N/A   Clear
5:15 PM -2.9 °F -11.2 °F -6.7 °F 84% 30.36 in 10.0 mi WNW 3.5 mph - N/A   Clear
5:35 PM -5.3 °F -17.8 °F -8.3 °F 87% 30.37 in 10.0 mi WNW 5.8 mph - N/A   Clear
5:55 PM -5.8 °F -18.4 °F -8.9 °F 87% 30.37 in 10.0 mi WNW 5.8 mph - N/A   Clear
6:15 PM -6.9 °F -21.2 °F -10.8 °F 83% 30.36 in 10.0 mi WNW 6.9 mph - N/A   Clear
6:35 PM -7.6 °F -22.1 °F -11.4 °F 84% 30.38 in 10.0 mi West 6.9 mph - N/A   Clear
6:55 PM -6.3 °F -21.9 °F -10.5 °F 82% 30.39 in 10.0 mi West 8.1 mph - N/A   Clear
7:15 PM -6.5 °F -17.5 °F -11.0 °F 81% 30.40 in 10.0 mi WSW 4.6 mph - N/A   Clear
7:35 PM -7.2 °F -20.1 °F -11.7 °F 81% 30.40 in 10.0 mi WSW 5.8 mph - N/A   Clear
7:55 PM -7.2 °F -16.1 °F -12.1 °F 79% 30.41 in 10.0 mi WSW 3.5 mph - N/A   Clear
8:15 PM -7.4 °F - -12.1 °F 80% 30.41 in 10.0 mi Calm Calm - N/A   Clear
8:35 PM -7.6 °F - -12.3 °F 80% 30.40 in 10.0 mi Calm Calm - N/A   Clear
8:55 PM -8.0 °F - -12.5 °F 81% 30.40 in 10.0 mi Calm Calm - N/A   Clear
9:15 PM -8.0 °F - -12.8 °F 79% 30.40 in 10.0 mi Calm Calm - N/A   Clear
10:15 PM -9.2 °F - -13.4 °F 82% 30.38 in 10.0 mi Calm Calm - N/A   Scattered Clouds
10:35 PM -10.3 °F - -14.3 °F 83% 30.36 in 10.0 mi Calm Calm - N/A   Clear
10:55 PM -10.7 °F - -14.4 °F 83% 30.36 in 10.0 mi Calm Calm - N/A   Clear
11:15 PM -10.5 °F - -14.4 °F 83% 30.36 in 10.0 mi Calm Calm - N/A   Clear
11:35 PM -11.0 °F - -15.0 °F 83% 30.36 in 10.0 mi Calm Calm - N/A   Scattered Clouds
11:55 PM -9.9 °F - -14.1 °F 82% 30.34 in 10.0 mi Calm Calm - N/A   Scattered Clouds